Dewpoint
56 57 58 59 59 59 60 60 59 59 59 59 59 60 59 60 60 61 60 60 59 59 58 59 58 57 58 59 59 60 60 60 58 60 61 63 62 63 64 62 61 59 59
53 57 57 58 59 59 59 59 59 59 60 60 60 60 60 60 61 60 60 60 59 58 58 59 58 58 57 58 59 60 60 60 59 58 61 61 61 61 62 62 62 59 57
53 55 57 58 59 59 59 59 60 60 59 60 60 60 61 61 61 61 60 59 58 58 58 58 58 58 57 59 59 59 60 61 60 59 59 59 60 61 61 58 56 57 56
51 53 57 57 58 58 59 58 59 60 60 60 61 62 62 62 62 61 61 60 59 58 58 59 59 59 59 59 59 58 59 59 59 58 56 55 57 56 57 56 54 53 52
51 51 57 57 57 57 60 59 60 59 60 62 62 62 62 62 62 61 60 60 59 59 59 60 60 59 59 59 60 58 58 58 57 55 52 52 53 52 54 53 52 52 53
52 51 56 56 56 57 58 59 59 56 59 60 62 62 61 62 52 54 59 60 60 60 60 60 60 59 57 55 55 55 57 57 55 53 52 50 50 51 52 52 52 51 52
52 52 55 55 55 58 56 58 55 55 55 55 55 57 59 59 49 51 54 61 60 60 60 60 60 61 59 59 51 50 51 51 52 52 51 51 50 53 52 52 51 51 51
52 52 52 53 55 56 56 56 56 54 54 53 53 53 54 56 48 49 53 61 60 60 60 60 60 60 58 56 52 54 53 55 54 53 52 53 53 54 55 54 53 52 53
50 51 51 52 55 55 56 56 56 54 53 53 52 51 49 48 47 47 55 59 59 59 59 60 59 58 52 48 53 52 49 46 44 47 48 47 47 48 52 56 52 51 48
48 49 50 51 53 54 56 56 56 55 53 53 51 51 48 44 43 48 55 58 56 56 56 57 51 55 45 45 52 51 49 47 43 41 39 39 40 42 44 46 49 43 43
46 47 48 50 52 53 56 56 56 56 55 53 50 50 49 46 40 43 50 56 54 52 52 54 52 41 41 45 48 51 48 45 44 47 48 50 50 48 49 48 45 44 43
45 44 46 49 50 53 56 56 56 56 55 54 52 50 49 46 41 38 45 49 49 50 50 50 48 39 40 41 45 40 40 43 44 48 48 47 47 44 43 43 44 45 45
44 43 43 48 49 55 56 56 55 56 55 54 55 52 52 48 42 39 39 41 44 49 50 45 39 37 36 35 36 39 40 43 48 46 44 43 43 43 42 42 43 43 43
44 44 43 47 50 55 56 56 56 55 55 55 54 53 53 51 44 37 37 45 44 47 44 39 37 36 35 35 31 34 42 47 47 43 42 42 42 42 41 42 42 43 39
44 46 44 44 50 54 55 56 55 56 55 54 54 53 53 51 47 39 36 43 44 43 37 32 29 29 32 30 35 37 47 47 44 42 42 41 41 41 42 42 41 38 37
47 47 44 44 48 52 54 52 41 48 46 47 46 49 51 48 43 37 36 39 40 37 37 34 33 31 34 40 44 46 46 44 42 42 42 41 40 40 41 40 38 36 36
47 48 45 46 48 51 53 53 52 45 42 44 43 43 44 46 42 37 36 38 39 42 42 43 41 40 41 44 47 47 44 43 43 43 41 40 41 40 37 36 37 36 35
49 45 46 47 48 50 51 52 52 50 49 47 41 41 40 41 41 38 35 39 43 44 46 47 47 48 48 48 46 44 43 43 43 41 41 42 42 37 36 37 36 34 34
49 49 48 47 49 49 50 51 51 50 49 46 44 40 37 37 38 37 36 34 39 46 45 46 48 51 51 48 45 44 43 42 42 41 43 43 38 37 37 36 35 33 33
48 46 47 48 48 50 50 50 51 50 48 47 46 45 39 40 41 41 39 35 35 39 42 45 50 50 49 46 44 43 43 41 41 44 42 40 39 38 36 35 34 34 33
49 48 44 50 48 48 49 49 49 49 48 47 46 44 37 41 41 43 43 41 39 35 43 46 49 47 46 45 43 43 42 41 43 42 40 39 38 36 36 36 35 34 34
50 49 48 48 50 48 48 48 48 48 48 47 46 45 35 41 42 43 44 44 44 44 47 49 48 47 45 44 44 43 41 43 41 40 40 39 38 37 37 35 35 35 35
51 50 49 49 48 45 48 48 48 47 46 47 46 46 41 41 43 43 44 45 48 51 50 48 48 46 46 45 44 42 42 41 41 41 39 38 38 38 36 36 36 34 33
52 51 50 49 49 49 47 49 49 44 46 45 46 47 45 43 44 44 45 46 50 51 49 48 47 46 44 43 43 43 43 41 41 39 37 36 36 36 36 34 34 33 33
52 53 52 50 49 48 48 48 48 48 47 47 45 46 47 47 46 46 49 49 51 48 47 47 46 43 42 40 40 40 37 35 37 36 37 35 35 36 32 33 31 30 28
50 53 53 52 51 49 49 49 49 51 49 50 49 46 46 47 47 48 51 52 48 46 44 42 42 40 40 41 41 36 35 35 37 35 37 35 32 29 29 29 27 27 27
Lifted_Index
1 1 0 0 0 0 1 0 -0 -0 -1 -1 -1 -0 -1 -1 -1 -1 -0 -0 -0 -0 -0 -0 0 1 1 1 1 1 1 1 2 2 2 2 2 2 2 1 1 1 1
1 1 0 0 0 0 1 1 0 -0 -1 -1 -1 -0 -1 -1 -1 -0 -0 -0 -0 -0 -0 -0 0 0 1 1 1 1 1 1 2 2 2 2 2 2 2 1 1 1 0
2 1 0 0 -0 0 1 1 1 0 -0 -0 -0 -0 -0 -1 -1 -0 -0 0 0 0 0 0 0 0 1 1 1 1 1 2 2 2 2 2 2 1 1 1 1 1 1
2 2 1 0 0 -0 0 1 1 1 0 -0 -0 -0 -0 -0 -0 -0 0 1 1 1 0 0 0 0 1 1 1 2 2 2 2 2 1 1 1 0 1 1 1 2 3
3 2 1 1 0 -0 -0 0 0 0 0 0 0 -0 -0 0 0 0 1 1 1 1 1 1 1 1 1 1 2 2 2 2 2 1 1 1 0 1 1 2 3 3 4
3 3 2 1 1 0 -0 -0 0 1 1 1 0 0 0 1 1 1 1 1 1 1 1 1 1 1 2 2 2 2 2 2 2 2 2 1 1 2 2 3 4 4 4
3 3 3 2 1 1 0 0 1 1 1 1 1 1 1 1 1 1 1 1 1 1 1 1 1 2 2 1 1 1 1 2 2 2 2 2 3 3 3 3 3 3 3
3 4 4 3 2 1 1 1 1 2 2 2 1 1 1 1 1 1 1 1 1 1 1 1 1 1 1 1 1 2 2 2 2 2 3 3 2 2 2 3 2 2 2
3 4 4 3 2 1 1 1 2 2 2 3 2 1 1 1 1 0 0 0 0 1 1 1 1 1 1 1 2 2 2 2 2 2 2 2 2 3 3 3 3 3 3
4 4 4 4 3 2 1 1 1 2 2 3 3 2 2 1 1 1 0 0 0 0 0 0 0 1 2 2 3 3 3 2 2 3 3 3 4 5 6 6 5 5 4
4 4 4 4 3 3 2 1 1 2 2 3 3 3 2 2 1 1 1 1 1 1 1 1 1 2 3 3 3 4 4 4 4 5 5 6 6 6 6 6 6 6 5
4 4 4 4 4 3 2 2 2 2 2 2 3 3 3 3 2 2 2 2 2 2 2 2 2 3 4 4 4 4 5 5 6 6 7 7 6 6 5 5 5 5 5
3 4 4 4 4 3 2 2 2 2 2 2 2 3 3 4 4 3 3 3 3 3 3 3 3 4 5 5 5 5 5 6 6 7 6 6 5 4 4 4 5 5 6
3 4 4 4 4 3 3 2 2 2 2 1 1 2 3 4 5 5 5 4 4 4 4 4 4 5 6 6 6 6 6 7 6 6 5 5 4 3 3 4 5 6 7
3 3 4 4 4 3 3 2 2 2 2 1 1 2 2 3 5 6 7 6 5 5 6 6 6 7 7 7 7 7 7 7 6 5 4 4 3 3 3 5 7 9 11
3 3 3 4 3 3 3 3 2 2 2 2 1 2 2 3 4 6 8 8 7 6 6 6 6 7 7 7 7 7 7 6 4 4 3 3 2 3 4 7 10 13 14
3 3 3 3 3 3 3 3 3 2 2 2 2 2 3 3 3 5 7 8 7 6 6 6 6 6 6 7 7 6 5 4 3 3 3 2 2 3 6 11 13 15 15
2 2 3 3 3 3 3 3 3 3 3 3 3 3 3 3 3 4 6 8 8 6 5 5 5 5 6 6 5 4 3 3 2 2 2 2 3 6 11 14 15 15 15
1 1 2 3 3 3 3 3 3 3 3 3 3 3 3 4 4 4 5 6 7 6 5 5 4 5 5 4 3 2 2 2 1 1 2 3 6 10 13 15 15 15 15
-1 0 1 2 2 2 3 3 3 3 3 4 4 4 4 4 4 4 4 4 5 6 5 5 5 5 4 3 2 2 1 1 1 1 2 5 10 13 15 15 15 15 15
-1 -1 -0 1 1 1 1 1 2 2 3 3 3 4 4 4 4 4 4 3 4 4 5 5 5 5 5 3 3 2 1 1 1 2 4 9 12 14 15 15 15 15 15
-1 -1 -1 -0 0 0 -0 0 0 1 1 2 2 3 3 3 4 4 4 4 3 3 4 4 5 5 5 4 3 2 1 1 2 4 8 12 13 14 15 15 15 15 15
-2 -2 -1 -1 -1 -1 -1 -1 -1 -0 -0 0 1 1 2 2 3 3 4 4 3 3 3 3 4 5 5 4 3 2 2 2 4 7 11 13 13 14 15 15 15 15 15
-2 -2 -2 -1 -1 -1 -1 -1 -1 -1 -1 -0 -0 0 0 1 2 2 2 3 3 3 3 4 4 4 4 4 3 3 4 6 9 12 13 13 13 14 15 15 15 15 16
-2 -2 -2 -2 -1 -1 -1 -1 -1 -1 -1 -1 -0 -0 -0 0 1 1 1 2 2 3 3 4 4 4 4 4 4 4 6 10 13 14 14 14 14 15 15 15 15 16 16
-2 -2 -2 -2 -1 -1 -1 -1 -1 -1 -1 -1 -0 -0 -0 0 1 1 1 1 2 2 3 4 4 4 4 4 4 5 8 13 14 14 13 14 15 15 15 15 16 16 16